{"data":{"norad_id":67063,"epoch":"2026-09-20T16:13:48.529632Z","epoch_age_seconds":93334,"freshness":"FRESH","line1":"1 67063U 25295E   26263.67625613 -.00000108  00000+0  35039-4 0  9993","line2":"2 67063  50.0047  43.0137 0000688  88.7092 271.3859 13.29325574 38203","mean_motion":13.29325574,"eccentricity":6.88e-5,"inclination_deg":50.0047,"raan_deg":43.0137,"arg_perigee_deg":88.7092,"mean_anomaly_deg":271.3859,"bstar":3.5039e-5,"rev_number":3820,"period_min":108.32560722254,"perigee_km":1148.7902918047,"apogee_km":1149.8260682615,"semimajor_km":7527.4451800331,"source":"CELESTRAK","updated_at":"2026-09-21T09:00:16.409447Z"}}